Regional Weather Roundup
Issued by NWS Upton, NY

Current Version | Previous Version | Text Only | Print | Product List | Glossary Off
Versions: 1 2 3 4 5 6 7 8 9 10 11 12 13 14 15 16 17 18 19 20 21 22 23 24 25 26 27
000 ASUS41 KOKX 190905 RWROKX Regional Weather Roundup National Weather Service New York NY 500 AM EDT SAT MAY 19 2018 Note: "FAIR" indicates few or no clouds below 12,000 feet with no significant weather and/or obstructions to visibility. NYZ071-072-176-178-NJZ106-104-191000- New York City Metro Area CITY SKY/WX TMP DP RH WIND PRES REMARKS Central Park LGT RAIN 50 44 80 E10G20 30.33F Bronx Bot Gard N/A 50 43 76 E20 30.31F Bronx Lehman C N/A 50 45 81 E14 N/A LaGuardia Arpt LGT RAIN 52 45 77 NE16 30.31F Queens College N/A 50 45 81 NE9 N/A Kennedy Intl LGT RAIN 51 46 83 NE10 30.32R Breezy Point N/A 50 N/A N/A NE9 N/A Brooklyn Coll N/A 52 45 76 N6 N/A Staten Island N/A 50 46 87 NE5 N/A Newark/Liberty LGT RAIN 52 45 77 NE13 30.30F Teterboro LGT RAIN 52 43 71 NE6 30.30F $$ NYZ177-179-078>081-191000- Long Island New York CITY SKY/WX TMP DP RH WIND PRES REMARKS Jones Beach N/A 52 N/A N/A NE16 N/A Wantagh N/A 50 46 87 NE7 N/A Hempstead N/A 50 45 81 NE3 30.33S Matinecock Pt N/A 50 N/A N/A E24 N/A Farmingdale LGT RAIN 50 44 80 E9 30.31F MacArthur/ISP CLOUDY 51 44 77 NE7 30.32S Stony Brook N/A 50 43 76 E3 N/A Shirley CLOUDY 52 47 83 E7 30.33S Mt Sinai Harb N/A N/A N/A N/A E9G17 N/A Westhampton CLOUDY 51 44 77 E6 30.35S East Hampton CLOUDY 49 46 87 E7 30.34S Southold N/A 50 45 81 E12 N/A Montauk N/A 51 48 89 E8 30.36S $$ NYZ052-065-067-191000- Hudson Valley CITY SKY/WX TMP DP RH WIND PRES REMARKS White Plains DRIZZLE 50 37 61 E7 30.32S Larchmont Harb N/A 50 N/A N/A NE24 N/A Croton On Huds N/A 52 N/A N/A MISG N/A Somers N/A 48 34 57 E2 N/A Brewster N/A 48 32 53 E3 N/A Newburgh CLOUDY 52 34 50 E10 30.34F Montgomery CLOUDY 52 35 52 NE7 30.33F Otisville N/A 50 39 66 NE5 N/A Warwick N/A 50 41 71 E2 N/A Suffern N/A 50 41 71 E1 N/A Poughkeepsie CLOUDY 50 41 71 CALM 30.33F Albany MOCLDY 54 26 34 S7 30.35F $$ NJZ001-105-106-008-010-013-015-019>022-104-191000- New Jersey CITY SKY/WX TMP DP RH WIND PRES REMARKS Newark/Liberty LGT RAIN 52 45 77 NE13 30.30F Teterboro LGT RAIN 52 43 71 NE6 30.30F Caldwell LGT RAIN 50 42 74 VRB7 30.31F Somerville LGT RAIN 50 44 80 CALM 30.28S Linden DRIZZLE 52 44 74 E9 30.31S Perth Amboy N/A 50 N/A N/A NE8 N/A Sussex LGT RAIN 49 42 77 NE6 30.31F Andover N/A N/A N/A N/A MISG 30.30F Trenton LGT RAIN 50 48 93 E12 30.27S Millville CLOUDY 52 51 97 E13 30.23F FOG Atlantic City CLOUDY 53 53 100 E12 30.25S Wrightstown CLOUDY 51 50 99 NE9 30.24 Toms River LGT RAIN 51 50 96 E6 30.29R FOG Belmar LGT RAIN 50 50 100 NE12 30.30S FOG $$ PAZ047>061-062-071-191000- Eastern Pennsylvania CITY SKY/WX TMP DP RH WIND PRES REMARKS Philadelphia LGT RAIN 50 49 96 NE9 30.26 Allentown RAIN 50 44 80 NE10 30.26F Scranton LGT RAIN 49 45 86 E9 30.24F $$ CTZ002-004>006-009-010-012-RIZ004-006-007-MAZ004-011-015-191000- Southern New England In CT CITY SKY/WX TMP DP RH WIND PRES REMARKS Bradley Intl CLOUDY 46 35 65 N7 30.38F Hartford FAIR 47 32 56 N9 30.38F Danbury CLOUDY 48 31 51 NE7 30.35F Wtrbury/Oxford CLOUDY 48 30 49 E9 30.35F Norwalk Harbor N/A 50 N/A N/A NE18 N/A Bridgeport CLOUDY 52 38 58 NE10 30.34F Meriden CLOUDY 49 31 49 N5 30.37S New Haven CLOUDY 51 39 63 N7 30.35S Chester PTSUNNY 48 39 71 NE7 30.35S Groton CLOUDY 49 43 80 NE12 30.36S Willimantic FAIR 44 38 79 NE3 30.39S In RI CITY SKY/WX TMP DP RH WIND PRES REMARKS Providence FAIR 45 41 86 N6 30.41R Block Island CLOUDY 49 47 93 E13G18 30.36S Westerly FAIR 47 43 86 NE9 30.37S In MA CITY SKY/WX TMP DP RH WIND PRES REMARKS Boston FAIR 47 43 86 NE7 30.43R Worcester FAIR 42 32 67 NE6 30.39S Westfield FAIR 44 38 79 N7 30.39F Provincetown FAIR 45 44 97 NE7 30.42S Nantucket CLOUDY 48 48 100 NE10 30.37F FOG $$ ANZ330-335-338-340-345-350-353-355-191000- Coastal Marine Observations STATION/POSITION TIME SKY/WX TEMP WIND PRES VSBY WAVE AIR SEA DIR/SP/G HT/PER (UTC) (F) (DEG/KT/KT) (MB) (MI) (FT/S) NY Harb Entrance 0850 51 53 70/ 21/ 25 1025.7 6/ 7 20 S Fire Island 0850 51 51 70/ 19/ 23 1025.5 7/ 7 23 SSW Montauk P 0850 49 50 70/ 17/ 21 1027.0 5/ 6 15 E Barnegat Li 0830 51 N/A 8/ 8 Hudson Canyon 0850 53 50 70/ 12/ 14 1024.3 7/ 7 Kings Point 0836 51 54 90/ 5/ 9 1027.6 Execution Rocks NOT AVBL Western LI Sound NOT AVBL Central LI Sound 0830 50 60/ 14/ 17 N/A 2 Robbins Reef 0848 51 50/ 15/ 18 1026.7 $$ >>>>>>>>>>>>>>>>>>>>>>>>>>>> KEY <<<<<<<<<<<<<<<<<<<<<<<<<<< > < > SKY/WX - Sky Condition/Present Weather < > TMP - Temperature in Fahrenheit < > DP - Dew Point in Fahrenheit < > RH - Relative Humidity in Percent < > WIND - Direction (from) and Speed in MPH < > PRES - Mean Sea Level Pressure (inches of Hg) < > WCI - Wind Chill Index < > VSB - Visibility in Miles < > HX - Heat Index < > TC - Temperature in Celsius < > VRB - Varibale Wind Direction < > < >>>>>>>>>>>>>>>>>>>>>>>>>>>> KEY <<<<<<<<<<<<<<<<<<<<<<<<<<<

USA.gov is the U.S. government's official web portal to all federal, state and local government web resources and services.